Location: *
(28.3744°N, 81.5492°W)
Time: 03:43:18
(UTC+00:00)

ATLAS 3B R/B - Pass Details

Date: 15 June 2025
Orbit: 935 x 1258 km, 63.8° (Epoch: 11 July)

Event Time Altitude Azimuth Distance (km) Brightness Sun altitude
Rises 06:18:38 0° 343° (NNW) 4,206 6.5 -36.8°
Reaches altitude 10° 06:21:57 10° 354° (N) 3,221 5.9 -36.6°
Maximum altitude 06:28:32 29° 52° (NE) 2,055 4.5 -36.2°
Enters shadow 06:34:25 12° 108° (ESE) 2,961 5.0 -35.8°
